Find STARLINK-37664

NORAD ID: 70632 Constellation: starlink operational
LEOCIRCULARRETROGRADE

リアルタイム位置

3D地球を読み込み中...

STARLINK-37664について

説明を読み込み中...

次回通過

Passes for default location (London). Set your location on the main map for personalized predictions.

高度履歴

Loading altitude history...

軌道要素

1 70632C 26101V 26126.33243056 .00315700 00000+0 49361-3 0 1264
2 70632 97.2845 339.8749 0010151 257.4435 108.7744 16.03760513 10
Epoch: May 6, 2026 • Age: 19 hours